TimeMDT,TemperatureF,Dew PointF,Humidity,Sea Level PressureIn,VisibilityMPH,Wind Direction,Wind SpeedMPH,Gust SpeedMPH,PrecipitationIn,Events,Conditions,WindDirDegrees,DateUTC
12:00 AM,82,78,83,29.73,,North,2.2,,,,,0,2013-09-22 06:00:00
12:42 AM,77.0,75.2,94,29.71,10.0,NNE,5.8,-,N/A,,Mostly Cloudy,20,2013-09-22 06:42:00
1:43 AM,77.0,75.2,94,29.70,8.0,NE,6.9,-,N/A,,Overcast,40,2013-09-22 07:43:00
2:47 AM,77.0,75.2,94,29.69,8.0,NE,5.8,-,N/A,,Overcast,50,2013-09-22 08:47:00
3:00 AM,81,78,87,29.71,,Calm,Calm,,,,,,2013-09-22 09:00:00
3:45 AM,77.0,75.2,94,29.68,8.0,North,5.8,-,N/A,,Overcast,360,2013-09-22 09:45:00
4:42 AM,77.0,75.2,94,29.67,8.0,NW,6.9,-,N/A,,Overcast,320,2013-09-22 10:42:00
5:45 AM,77.0,75.2,94,29.70,8.0,NE,5.8,-,N/A,,Overcast,40,2013-09-22 11:45:00
6:41 AM,77.0,75.2,94,29.70,8.0,WNW,6.9,-,N/A,,Mostly Cloudy,300,2013-09-22 12:41:00
7:41 AM,78.8,75.2,89,29.71,12.0,NW,4.6,-,N/A,,Overcast,310,2013-09-22 13:41:00
8:41 AM,78.8,75.2,89,29.72,10.0,ENE,5.8,-,N/A,,Overcast,70,2013-09-22 14:41:00
9:46 AM,80.6,75.2,84,29.73,10.0,Calm,Calm,-,N/A,,Mostly Cloudy,0,2013-09-22 15:46:00
10:45 AM,82.4,75.2,79,29.72,10.0,WSW,5.8,-,N/A,,Mostly Cloudy,250,2013-09-22 16:45:00
11:42 AM,82.4,75.2,79,29.75,12.0,SSW,6.9,-,N/A,,Mostly Cloudy,200,2013-09-22 17:42:00
12:00 PM,90,78,60,29.75,,WSW,4.5,,,,,240,2013-09-22 18:00:00
12:41 PM,84.2,77.0,79,29.72,12.0,South,6.9,-,N/A,,Scattered Clouds,180,2013-09-22 18:41:00
1:49 PM,84.2,75.2,74,29.68,12.0,SW,8.1,-,N/A,,Partly Cloudy,220,2013-09-22 19:49:00
2:43 PM,84.2,77.0,79,29.66,12.0,SW,8.1,-,N/A,,Scattered Clouds,220,2013-09-22 20:43:00
3:00 PM,90,78,61,29.68,,WSW,6.7,,,,,240,2013-09-22 21:00:00
3:43 PM,84.2,77.0,79,29.64,14.0,SW,9.2,-,N/A,,Scattered Clouds,230,2013-09-22 21:43:00
4:43 PM,82.4,75.2,79,29.64,14.0,SW,9.2,-,N/A,,Mostly Cloudy,220,2013-09-22 22:43:00
5:42 PM,82.4,75.2,79,29.65,12.0,SW,9.2,-,N/A,,Mostly Cloudy,230,2013-09-22 23:42:00
6:00 PM,88,76,61,29.66,,WSW,6.7,,,,,250,2013-09-23 00:00:00
6:43 PM,80.6,75.2,84,29.65,12.0,WSW,8.1,-,N/A,,Mostly Cloudy,240,2013-09-23 00:43:00
7:43 PM,78.8,75.2,89,29.67,10.0,SSW,5.8,-,N/A,,Mostly Cloudy,210,2013-09-23 01:43:00
8:40 PM,78.8,75.2,89,29.69,10.0,WSW,6.9,-,N/A,,Scattered Clouds,240,2013-09-23 02:40:00
9:00 PM,84,76,71,29.71,,WSW,4.5,,,,,240,2013-09-23 03:00:00
9:51 PM,78.8,75.2,89,29.72,10.0,North,5.8,-,N/A,,Scattered Clouds,10,2013-09-23 03:51:00
10:48 PM,78.8,75.2,89,29.72,10.0,NNE,6.9,-,N/A,,Scattered Clouds,20,2013-09-23 04:48:00
11:43 PM,77.0,75.2,94,29.72,10.0,Calm,Calm,-,N/A,,Mostly Cloudy,0,2013-09-23 05:43:00